Upper Bear Creek Observed Data For Previous 48 Hours

Caption
Day and Hour Reservoir Elevation (behind dam)* Tailwater Elevation (below dam)* Average Hourly Discharge*
11/11/2018 1 AM CST 795.81 726.80 180
11/11/2018 2 AM CST 795.81 726.79 180
11/11/2018 3 AM CST 795.81 726.78 180
11/11/2018 4 AM CST 795.80 726.80 180
11/11/2018 5 AM CST 795.79 726.80 180
11/11/2018 6 AM CST 795.79 726.80 180
11/11/2018 7 AM CST 795.79 726.80 180
11/11/2018 8 AM CST 795.78 726.79 180
11/11/2018 9 AM CST 795.78 726.80 180
11/11/2018 10 AM CST 795.77 726.80 180
11/11/2018 11 AM CST 795.76 726.80 180
11/11/2018 12 PM CST 795.76 726.79 180
11/11/2018 1 PM CST 795.75 726.79 180
11/11/2018 2 PM CST 795.75 726.79 180
11/11/2018 3 PM CST 795.74 726.80 180
11/11/2018 4 PM CST 795.74 726.79 180
11/11/2018 5 PM CST 795.73 726.79 180
11/11/2018 6 PM CST 795.73 726.80 180
11/11/2018 7 PM CST 795.72 726.80 180
11/11/2018 8 PM CST 795.72 726.79 180
11/11/2018 9 PM CST 795.71 726.78 180
11/11/2018 10 PM CST 795.71 726.80 180
11/11/2018 11 PM CST 795.70 726.78 180
11/12/2018 12 AM CST 795.69 726.80 180
11/12/2018 1 AM CST 795.70 726.80 180
11/12/2018 2 AM CST 795.70 726.78 180
11/12/2018 3 AM CST 795.69 726.79 180
11/12/2018 4 AM CST 795.69 726.79 180
11/12/2018 5 AM CST 795.70 726.79 180
11/12/2018 6 AM CST 795.70 726.82 180
11/12/2018 7 AM CST 795.72 726.82 180
11/12/2018 8 AM CST 795.72 726.81 180
11/12/2018 9 AM CST 795.73 726.82 180
11/12/2018 10 AM CST 795.75 726.82 180
11/12/2018 11 AM CST 795.77 726.82 180
11/12/2018 12 PM CST 795.80 726.82 180
11/12/2018 1 PM CST 795.84 726.82 180
11/12/2018 2 PM CST 795.86 726.82 180
11/12/2018 3 PM CST 795.89 726.80 180
11/12/2018 4 PM CST 795.92 726.81 180
11/12/2018 5 PM CST 795.94 726.81 180
11/12/2018 6 PM CST 795.97 726.81 180
11/12/2018 7 PM CST 795.98 726.80 180
11/12/2018 8 PM CST 796.00 726.80 180
11/12/2018 9 PM CST 796.01 726.80 180
11/12/2018 10 PM CST 796.02 726.81 180
11/12/2018 11 PM CST 796.04 726.80 180
11/13/2018 12 AM CST 796.04 726.80 180
11/13/2018 1 AM CST 796.06 726.80 180
11/13/2018 2 AM CST 796.07 726.80 180
11/13/2018 3 AM CST 796.08 726.80 180
11/13/2018 4 AM CST 796.09 726.81 180
11/13/2018 5 AM CST 796.10 726.80 180
11/13/2018 6 AM CST 796.11 726.79 180
11/13/2018 7 AM CST 796.11 726.80 180
11/13/2018 8 AM CST 796.12 726.78 180
11/13/2018 9 AM CST 796.12 726.80 180

Elevations are in feet above sea level. Discharges are in cubic feet per second and are reported at the end of the hour.